TimeCDT,TemperatureF,Dew PointF,Humidity,Sea Level PressureIn,VisibilityMPH,Wind Direction,Wind SpeedMPH,Gust SpeedMPH,PrecipitationIn,Events,Conditions,WindDirDegrees,DateUTC
12:53 AM,25.0,21.9,88,30.18,7.0,ENE,3.5,-,N/A,,Clear,60,2013-03-28 05:53:00
1:53 AM,24.1,21.0,88,30.18,7.0,Calm,Calm,-,N/A,,Clear,0,2013-03-28 06:53:00
2:53 AM,21.0,18.0,88,30.18,6.0,Calm,Calm,-,N/A,,Clear,0,2013-03-28 07:53:00
3:53 AM,21.9,19.9,92,30.16,7.0,ENE,5.8,-,N/A,,Mostly Cloudy,70,2013-03-28 08:53:00
4:53 AM,21.0,18.0,88,30.15,8.0,ENE,3.5,-,N/A,,Clear,60,2013-03-28 09:53:00
5:53 AM,21.0,18.0,88,30.13,10.0,East,8.1,-,N/A,,Clear,80,2013-03-28 10:53:00
7:53 AM,24.1,19.9,84,30.14,8.0,ENE,5.8,-,N/A,,Overcast,70,2013-03-28 12:53:00
8:53 AM,28.0,24.1,85,30.15,8.0,East,5.8,-,N/A,,Mostly Cloudy,100,2013-03-28 13:53:00
9:53 AM,35.1,28.0,76,30.15,10.0,East,8.1,-,N/A,,Mostly Cloudy,100,2013-03-28 14:53:00
10:53 AM,46.0,28.9,51,30.14,10.0,ESE,10.4,-,N/A,,Partly Cloudy,120,2013-03-28 15:53:00
11:53 AM,50.0,30.0,46,30.14,10.0,ESE,8.1,-,N/A,,Clear,120,2013-03-28 16:53:00
12:53 PM,54.0,32.0,43,30.13,10.0,ESE,5.8,-,N/A,,Clear,110,2013-03-28 17:53:00
1:53 PM,57.9,34.0,41,30.10,10.0,Calm,Calm,-,N/A,,Partly Cloudy,0,2013-03-28 18:53:00
2:53 PM,61.0,34.0,36,30.09,10.0,ESE,10.4,-,N/A,,Clear,120,2013-03-28 19:53:00
3:53 PM,64.0,34.0,33,30.07,10.0,SE,12.7,18.4,N/A,,Scattered Clouds,130,2013-03-28 20:53:00
4:53 PM,62.1,35.1,37,30.07,10.0,SE,16.1,-,N/A,,Partly Cloudy,130,2013-03-28 21:53:00
5:53 PM,61.0,35.1,38,30.06,10.0,SE,17.3,-,N/A,,Clear,140,2013-03-28 22:53:00
6:53 PM,60.1,34.0,38,30.07,10.0,SSE,10.4,-,N/A,,Clear,160,2013-03-28 23:53:00
7:53 PM,52.0,32.0,47,30.10,10.0,SE,9.2,-,N/A,,Clear,140,2013-03-29 00:53:00
8:53 PM,48.0,32.0,54,30.12,10.0,East,8.1,-,N/A,,Clear,100,2013-03-29 01:53:00
9:53 PM,37.0,30.0,76,30.14,10.0,ENE,10.4,-,N/A,,Clear,60,2013-03-29 02:53:00
10:53 PM,33.1,28.0,82,30.13,8.0,ENE,6.9,-,N/A,,Clear,60,2013-03-29 03:53:00
11:53 PM,30.0,27.0,88,30.14,6.0,ENE,5.8,-,N/A,,Clear,60,2013-03-29 04:53:00